Istanbul, Turkey

12:11 PM +03 on May 25, 2017 (GMT +0300)
Ataturk

Weather History for LTBA - February, 2014

Change the Weather History Date:

Saturday, February 22, 2014

  Actual Average Record
Temperature  
Mean Temperature 47 °F -  
Max Temperature 49 °F 50 °F 62 °F (1998)
Min Temperature 45 °F 38 °F 26 °F (2003)
Degree Days  
Heating Degree Days 18    
Moisture  
Dew Point 43 °F    
Average Humidity 84    
Maximum Humidity 93    
Minimum Humidity 69    
Precipitation  
Precipitation 0.00 in - - ()
Sea Level Pressure  
Sea Level Pressure 29.97 in    
Wind  
Wind Speed 8 mph ()    
Max Wind Speed 17 mph    
Max Gust Speed 17 mph    
Visibility 4.7 miles    
Events      
Averages and records for this station are not official NWS values.
T = Trace of Precipitation, MM = Missing Value Source: Averaged Metar Reports

Daily Weather History Graph

Daily Weather History Graph

Search for Another Location

Airport or City:

Trip Planner

Search our weather history database for the weather conditions in past years. The results will help you decide how hot, cold, wet, or windy it might be!

Date:

Astronomy

Feb. 22, 2014 Rise Set
Actual Time 6:49 AM EET 5:47 PM EET
Civil Twilight 6:21 AM EET 6:15 PM EET
Nautical Twilight 5:50 AM EET 6:47 PM EET
Astronomical Twilight 5:18 AM EET 7:18 PM EET
Moon 12:24 AM EET (2/22) 10:41 AM EET (2/22)
Length of Visible Light 11h 53m
Length of Day
10h 57m
Waning Gibbous, 53% of the Moon is Illuminated
Feb 22
Waning Gibbous
Feb 22
Last Quarter
Mar 1
New
Mar 8
First Quarter
Mar 16
Full

Hourly Weather History & Observations

Time (EET) Temp. Windchill Dew Point Humidity Pressure Visibility Wind Dir Wind Speed Gust Speed Precip Events Conditions
12:20 AM 48.2 °F - 44.6 °F 87% 29.92 in 4.3 mi North 11.5 mph - N/A   Mostly Cloudy
12:50 AM 46.4 °F 40.4 °F 44.6 °F 93% 29.92 in 4.3 mi North 13.8 mph - N/A   Mostly Cloudy
1:20 AM 46.4 °F 40.7 °F 44.6 °F 93% 29.92 in 4.3 mi North 12.7 mph - N/A   Mostly Cloudy
1:50 AM 46.4 °F 39.5 °F 42.8 °F 87% 29.89 in 4.3 mi North 17.3 mph - N/A   Mostly Cloudy
2:00 AM 46 °F - 44 °F 89% 29.91 in 4 mi North 17.3 mph - -   Mist
2:20 AM 46.4 °F 40.1 °F 44.6 °F 93% 29.92 in 4.3 mi North 15.0 mph - N/A   Mostly Cloudy
2:50 AM 46.4 °F 40.1 °F 44.6 °F 93% 29.92 in 4.3 mi North 15.0 mph - N/A   Mostly Cloudy
3:20 AM 46.4 °F 40.7 °F 44.6 °F 93% 29.92 in 4.3 mi North 12.7 mph - N/A   Mostly Cloudy
3:50 AM 46.4 °F 41.1 °F 44.6 °F 93% 29.92 in 4.3 mi North 11.5 mph - N/A   Mostly Cloudy
4:20 AM 46.4 °F 41.1 °F 42.8 °F 87% 29.92 in 4.3 mi North 11.5 mph - N/A   Mostly Cloudy
4:50 AM 46.4 °F 41.1 °F 44.6 °F 93% 29.92 in 5.0 mi North 11.5 mph - N/A   Mostly Cloudy
5:00 AM 46 °F - 44 °F 88% 29.93 in 5 mi North 11.5 mph - -   Mist
5:20 AM 46.4 °F 41.1 °F 42.8 °F 87% 29.92 in 5.0 mi NNE 11.5 mph - N/A   Mostly Cloudy
5:50 AM 46.4 °F 42.9 °F 42.8 °F 87% 29.92 in 5.0 mi NNE 6.9 mph - N/A   Mostly Cloudy
6:20 AM 46.4 °F 41.5 °F 42.8 °F 87% 29.92 in 5.0 mi North 10.4 mph - N/A   Mostly Cloudy
6:50 AM 46.4 °F 41.9 °F 44.6 °F 93% 29.92 in 5.0 mi North 9.2 mph - N/A   Mostly Cloudy
7:20 AM 46.4 °F 42.4 °F 44.6 °F 93% 29.95 in 5.0 mi NNE 8.1 mph - N/A   Mostly Cloudy
7:50 AM 46.4 °F 42.9 °F 44.6 °F 93% 29.95 in 5.0 mi North 6.9 mph - N/A   Mostly Cloudy
8:00 AM 46 °F - 44 °F 88% 29.96 in 4 mi North 6.9 mph - -   Mist
8:20 AM 46.4 °F 43.5 °F 42.8 °F 87% 29.95 in 5.0 mi Variable 5.8 mph - N/A   Mostly Cloudy
8:50 AM 46.4 °F 42.9 °F 44.6 °F 93% 29.98 in 3.7 mi NNE 6.9 mph - N/A   Mostly Cloudy
9:20 AM 48.2 °F - 44.6 °F 87% 29.98 in 3.7 mi Variable 4.6 mph - N/A   Mostly Cloudy
9:50 AM 48.2 °F - 44.6 °F 87% 29.98 in 3.7 mi Variable 5.8 mph 17.3 mph N/A   Mostly Cloudy
10:20 AM 46.4 °F 42.4 °F 44.6 °F 93% 29.98 in 3.7 mi North 8.1 mph - N/A   Mostly Cloudy
10:50 AM 48.2 °F - 42.8 °F 82% 29.98 in 3.7 mi NNE 5.8 mph - N/A   Mostly Cloudy
11:00 AM 47 °F - 44 °F 84% 29.99 in 4 mi NNE 5.8 mph - -   Mist
11:20 AM 48.2 °F - 44.6 °F 87% 29.98 in 3.7 mi Variable 3.5 mph - N/A   Mostly Cloudy
11:50 AM 48.2 °F - 44.6 °F 87% 29.98 in 3.7 mi NNW 4.6 mph - N/A   Mostly Cloudy
12:20 PM 48.2 °F - 42.8 °F 82% 29.98 in 3.7 mi North 5.8 mph - N/A   Mostly Cloudy
12:50 PM 48.2 °F - 44.6 °F 87% 29.98 in 3.7 mi NNW 5.8 mph - N/A   Mostly Cloudy
1:20 PM 48.2 °F - 42.8 °F 82% 29.98 in 3.7 mi NNW 4.6 mph - N/A   Mostly Cloudy
1:50 PM 50.0 °F - 44.6 °F 82% 29.98 in 3.7 mi Variable 4.6 mph - N/A   Mostly Cloudy
2:00 PM 49 °F - 44 °F 76% 29.99 in 4 mi North 4.6 mph - -   Mist
2:20 PM 50.0 °F - 42.8 °F 76% 29.98 in 3.7 mi Variable 4.6 mph - N/A   Mostly Cloudy
2:50 PM 48.2 °F - 42.8 °F 82% 29.98 in 3.7 mi Variable 4.6 mph - N/A   Mostly Cloudy
3:20 PM 48.2 °F - 44.6 °F 87% 29.98 in 3.7 mi NNW 6.9 mph - N/A   Mostly Cloudy
3:50 PM 48.2 °F - 42.8 °F 82% 29.98 in 3.7 mi NW 5.8 mph - N/A   Mostly Cloudy
4:20 PM 48.2 °F - 42.8 °F 82% 29.98 in 3.7 mi NW 5.8 mph - N/A   Mostly Cloudy
4:50 PM 48.2 °F - 42.8 °F 82% 29.98 in 3.7 mi NNE 4.6 mph - N/A   Mostly Cloudy
5:00 PM 49 °F - 42 °F 71% 30.01 in 4 mi NNE 4.6 mph - -   Mist
5:20 PM 48.2 °F - 42.8 °F 82% 29.98 in 3.7 mi NNE 5.8 mph - N/A   Mostly Cloudy
5:50 PM 48.2 °F - 42.8 °F 82% 30.01 in 6.2 mi NNW 8.1 mph - N/A   Mostly Cloudy
6:20 PM 48.2 °F - 42.8 °F 82% 30.01 in 6.2 mi North 6.9 mph - N/A   Mostly Cloudy
6:50 PM 48.2 °F - 42.8 °F 82% 30.04 in 6.2 mi NNE 4.6 mph - N/A   Mostly Cloudy
7:20 PM 50.0 °F - 41.0 °F 71% 30.04 in 6.2 mi Variable 3.5 mph - N/A   Mostly Cloudy
7:50 PM 48.2 °F - 41.0 °F 76% 30.01 in 6.2 mi NE 3.5 mph - N/A   Mostly Cloudy
8:00 PM 49 °F - 42 °F 69% 30.03 in 6 mi NE 3.5 mph - -   Mostly Cloudy
8:20 PM 48.2 °F - 41.0 °F 76% 30.01 in 6.2 mi Variable 3.5 mph - N/A   Mostly Cloudy
8:50 PM 48.2 °F - 41.0 °F 76% 30.01 in 6.2 mi Variable 1.2 mph - N/A   Mostly Cloudy
9:20 PM 48.2 °F - 41.0 °F 76% 30.04 in 6.2 mi Variable 2.3 mph - N/A   Mostly Cloudy
9:50 PM 48.2 °F - 41.0 °F 76% 30.04 in 6.2 mi North 5.8 mph - N/A   Mostly Cloudy
10:20 PM 48.2 °F - 41.0 °F 76% 30.04 in 6.2 mi North 4.6 mph - N/A   Mostly Cloudy
10:50 PM 48.2 °F - 41.0 °F 76% 30.04 in 6.2 mi Variable 1.2 mph - N/A   Mostly Cloudy
11:00 PM 47 °F - 41 °F 74% 30.04 in 6 mi WSW 1.2 mph - -   Mostly Cloudy
11:20 PM 48.2 °F - 42.8 °F 82% 30.04 in 6.2 mi Calm Calm - N/A   Mostly Cloudy
11:50 PM 48.2 °F - 42.8 °F 82% 30.04 in 6.2 mi NW 4.6 mph - N/A   Mostly Cloudy